Year,Month,Day,Hour,Minute,Value (Times are PST for temperature in C)
2012,06,24,00,00,10.10
2012,06,24,00,01,10.10
2012,06,24,00,02,10.20
2012,06,24,00,03,10.20
2012,06,24,00,04,10.20
2012,06,24,00,05,10.20
2012,06,24,00,06,10.20
2012,06,24,00,07,10.30
2012,06,24,00,08,10.30
2012,06,24,00,09,10.30
2012,06,24,00,10,10.30
2012,06,24,00,11,10.30
2012,06,24,00,12,10.30
2012,06,24,00,13,10.30
2012,06,24,00,14,10.30
2012,06,24,00,15,10.30
2012,06,24,00,16,10.30
2012,06,24,00,17,10.30
2012,06,24,00,18,10.30
2012,06,24,00,19,10.30
2012,06,24,00,20,10.30
2012,06,24,00,21,10.30
2012,06,24,00,22,10.20
2012,06,24,00,23,10.20
2012,06,24,00,24,10.20
2012,06,24,00,25,10.20
2012,06,24,00,26,10.20
2012,06,24,00,27,10.20
2012,06,24,00,28,10.10
2012,06,24,00,29,10.10
2012,06,24,00,30,10.10
2012,06,24,00,31,10.10
2012,06,24,00,32,10.10
2012,06,24,00,33,10.00
2012,06,24,00,34,10.00
2012,06,24,00,35,10.00
2012,06,24,00,36,10.00
2012,06,24,00,37,9.90
2012,06,24,00,38,9.90
2012,06,24,00,39,9.90
2012,06,24,00,40,9.90
2012,06,24,00,41,9.80
2012,06,24,00,42,9.80
2012,06,24,00,43,9.80
2012,06,24,00,44,9.80
2012,06,24,00,45,9.80
2012,06,24,00,46,9.70
2012,06,24,00,47,9.70
2012,06,24,00,48,9.70
2012,06,24,00,49,9.70
2012,06,24,00,50,9.70
2012,06,24,00,51,9.70
2012,06,24,00,52,9.70
2012,06,24,00,53,9.70
2012,06,24,00,54,9.60
2012,06,24,00,55,9.60
2012,06,24,00,56,9.60
2012,06,24,00,57,9.60
2012,06,24,00,58,9.50
2012,06,24,00,59,9.50
2012,06,24,01,00,9.50
2012,06,24,01,01,9.50
2012,06,24,01,02,9.40
2012,06,24,01,03,9.40
2012,06,24,01,04,9.40
2012,06,24,01,05,9.40
2012,06,24,01,06,9.40
2012,06,24,01,07,9.40
2012,06,24,01,08,9.40
2012,06,24,01,09,9.30
2012,06,24,01,10,9.30
2012,06,24,01,11,9.30
2012,06,24,01,12,9.30
2012,06,24,01,13,9.20
2012,06,24,01,14,9.20
2012,06,24,01,15,9.10
2012,06,24,01,16,9.10
2012,06,24,01,17,9.10
2012,06,24,01,18,9.00
2012,06,24,01,19,9.00
2012,06,24,01,20,8.90
2012,06,24,01,21,8.90
2012,06,24,01,22,8.90
2012,06,24,01,23,8.90
2012,06,24,01,24,8.90
2012,06,24,01,25,8.80
2012,06,24,01,26,8.80
2012,06,24,01,27,8.80
2012,06,24,01,28,8.80
2012,06,24,01,29,8.80
2012,06,24,01,30,8.80
2012,06,24,01,31,8.80
2012,06,24,01,32,8.80
2012,06,24,01,33,8.80
2012,06,24,01,34,8.70
2012,06,24,01,35,8.70
2012,06,24,01,36,8.80
2012,06,24,01,37,8.80
2012,06,24,01,38,8.80
2012,06,24,01,39,8.80
2012,06,24,01,40,8.80
2012,06,24,01,41,8.80
2012,06,24,01,42,8.70
2012,06,24,01,43,8.70
2012,06,24,01,44,8.70
2012,06,24,01,45,8.60
2012,06,24,01,46,8.60
2012,06,24,01,47,8.60
2012,06,24,01,48,8.50
2012,06,24,01,49,8.50
2012,06,24,01,50,8.50
2012,06,24,01,51,8.50
2012,06,24,01,52,8.50
2012,06,24,01,53,8.50
2012,06,24,01,54,8.50
2012,06,24,01,55,8.50
2012,06,24,01,56,8.50
2012,06,24,01,57,8.50
2012,06,24,01,58,8.50
2012,06,24,01,59,8.50
2012,06,24,02,00,8.50
2012,06,24,02,01,8.40
2012,06,24,02,02,8.40
2012,06,24,02,03,8.40
2012,06,24,02,04,8.40
2012,06,24,02,05,8.30
2012,06,24,02,06,8.30
2012,06,24,02,07,8.30
2012,06,24,02,08,8.30
2012,06,24,02,09,8.30
2012,06,24,02,10,8.20
2012,06,24,02,11,8.20
2012,06,24,02,12,8.20
2012,06,24,02,13,8.30
2012,06,24,02,14,8.20
2012,06,24,02,15,8.20
2012,06,24,02,16,8.20
2012,06,24,02,17,8.20
2012,06,24,02,18,8.20
2012,06,24,02,19,8.20
2012,06,24,02,20,8.20
2012,06,24,02,21,8.10
2012,06,24,02,22,8.10
2012,06,24,02,23,8.10
2012,06,24,02,24,8.10
2012,06,24,02,25,8.10
2012,06,24,02,26,8.10
2012,06,24,02,27,8.00
2012,06,24,02,28,8.00
2012,06,24,02,29,8.00
2012,06,24,02,30,8.00
2012,06,24,02,31,8.00
2012,06,24,02,32,7.90
2012,06,24,02,33,7.90
2012,06,24,02,34,7.90
2012,06,24,02,35,7.90
2012,06,24,02,36,7.90
2012,06,24,02,37,7.90
2012,06,24,02,38,7.90
2012,06,24,02,39,7.80
2012,06,24,02,40,7.80
2012,06,24,02,41,7.80
2012,06,24,02,42,7.80
2012,06,24,02,43,7.80
2012,06,24,02,44,7.80
2012,06,24,02,45,7.80
2012,06,24,02,46,7.80
2012,06,24,02,47,7.80
2012,06,24,02,48,7.80
2012,06,24,02,49,7.70
2012,06,24,02,50,7.70
2012,06,24,02,51,7.70
2012,06,24,02,52,7.70
2012,06,24,02,53,7.70
2012,06,24,02,54,7.70
2012,06,24,02,55,7.70
2012,06,24,02,56,7.70
2012,06,24,02,57,7.70
2012,06,24,02,58,7.70
2012,06,24,02,59,7.70
2012,06,24,03,00,7.70
2012,06,24,03,01,7.70
2012,06,24,03,02,7.70
2012,06,24,03,03,7.70
2012,06,24,03,04,7.70
2012,06,24,03,05,7.60
2012,06,24,03,06,7.60
2012,06,24,03,07,7.60
2012,06,24,03,08,7.60
2012,06,24,03,09,7.70
2012,06,24,03,10,7.70
2012,06,24,03,11,7.70
2012,06,24,03,12,7.60
2012,06,24,03,13,7.60
2012,06,24,03,14,7.60
2012,06,24,03,15,7.60
2012,06,24,03,16,7.60
2012,06,24,03,17,7.60
2012,06,24,03,18,7.60
2012,06,24,03,19,7.60
2012,06,24,03,20,7.50
2012,06,24,03,21,7.50
2012,06,24,03,22,7.50
2012,06,24,03,23,7.60
2012,06,24,03,24,7.60
2012,06,24,03,25,7.60
2012,06,24,03,26,7.60
2012,06,24,03,27,7.60
2012,06,24,03,28,7.50
2012,06,24,03,29,7.50
2012,06,24,03,30,7.40
2012,06,24,03,31,7.40
2012,06,24,03,32,7.40
2012,06,24,03,33,7.30
2012,06,24,03,34,7.30
2012,06,24,03,35,7.30
2012,06,24,03,36,7.30
2012,06,24,03,37,7.30
2012,06,24,03,38,7.30
2012,06,24,03,39,7.30
2012,06,24,03,40,7.20
2012,06,24,03,41,7.20
2012,06,24,03,42,7.20
2012,06,24,03,43,7.20
2012,06,24,03,44,7.20
2012,06,24,03,45,7.20
2012,06,24,03,46,7.20
2012,06,24,03,47,7.20
2012,06,24,03,48,7.20
2012,06,24,03,49,7.20
2012,06,24,03,50,7.10
2012,06,24,03,51,7.10
2012,06,24,03,52,7.10
2012,06,24,03,53,7.10
2012,06,24,03,54,7.10
2012,06,24,03,55,7.00
2012,06,24,03,56,7.00
2012,06,24,03,57,7.00
2012,06,24,03,58,7.00
2012,06,24,03,59,7.00
2012,06,24,04,00,7.00
2012,06,24,04,01,7.00
2012,06,24,04,02,7.00
2012,06,24,04,03,7.00
2012,06,24,04,04,7.00
2012,06,24,04,05,7.00
2012,06,24,04,06,7.00
2012,06,24,04,07,7.00
2012,06,24,04,08,7.00
2012,06,24,04,09,7.00
2012,06,24,04,10,7.00
2012,06,24,04,11,7.00
2012,06,24,04,12,7.00
2012,06,24,04,13,7.00
2012,06,24,04,14,7.00
2012,06,24,04,15,6.90
2012,06,24,04,16,6.90
2012,06,24,04,17,6.90
2012,06,24,04,18,6.90
2012,06,24,04,19,6.80
2012,06,24,04,20,6.80
2012,06,24,04,21,6.80
2012,06,24,04,22,6.80
2012,06,24,04,23,6.90
2012,06,24,04,24,6.90
2012,06,24,04,25,6.80
2012,06,24,04,26,6.80
2012,06,24,04,27,6.80
2012,06,24,04,28,6.80
2012,06,24,04,29,6.80
2012,06,24,04,30,6.80
2012,06,24,04,31,6.80
2012,06,24,04,32,6.80
2012,06,24,04,33,6.80
2012,06,24,04,34,6.80
2012,06,24,04,35,6.80
2012,06,24,04,36,6.80
2012,06,24,04,37,6.80
2012,06,24,04,38,6.80
2012,06,24,04,39,6.80
2012,06,24,04,40,6.80
2012,06,24,04,41,6.80
2012,06,24,04,42,6.80
2012,06,24,04,43,6.80
2012,06,24,04,44,6.80
2012,06,24,04,45,6.80
2012,06,24,04,46,6.70
2012,06,24,04,47,6.70
2012,06,24,04,48,6.70
2012,06,24,04,49,6.70
2012,06,24,04,50,6.70
2012,06,24,04,51,6.80
2012,06,24,04,52,6.80
2012,06,24,04,53,6.80
2012,06,24,04,54,6.80
2012,06,24,04,55,6.80
2012,06,24,04,56,6.80
2012,06,24,04,57,6.80
2012,06,24,04,58,6.80
2012,06,24,04,59,6.80
2012,06,24,05,00,6.90
2012,06,24,05,01,6.90
2012,06,24,05,02,6.90
2012,06,24,05,03,6.90
2012,06,24,05,04,6.90
2012,06,24,05,05,6.90
2012,06,24,05,06,6.90
2012,06,24,05,07,6.90
2012,06,24,05,08,6.90
2012,06,24,05,09,6.90
2012,06,24,05,10,6.90
2012,06,24,05,11,7.00
2012,06,24,05,12,7.00
2012,06,24,05,13,7.00
2012,06,24,05,14,7.00
2012,06,24,05,15,7.00
2012,06,24,05,16,6.90
2012,06,24,05,17,6.90
2012,06,24,05,18,6.90
2012,06,24,05,19,6.90
2012,06,24,05,20,6.90
2012,06,24,05,21,6.90
2012,06,24,05,22,6.90
2012,06,24,05,23,6.90
2012,06,24,05,24,6.90
2012,06,24,05,25,6.90
2012,06,24,05,26,6.90
2012,06,24,05,27,6.90
2012,06,24,05,28,6.90
2012,06,24,05,29,6.90
2012,06,24,05,30,6.80
2012,06,24,05,31,6.80
2012,06,24,05,32,6.80
2012,06,24,05,33,6.80
2012,06,24,05,34,6.80
2012,06,24,05,35,6.80
2012,06,24,05,36,6.80
2012,06,24,05,37,6.80
2012,06,24,05,38,6.80
2012,06,24,05,39,6.80
2012,06,24,05,40,6.80
2012,06,24,05,41,6.80
2012,06,24,05,42,6.80
2012,06,24,05,43,6.90
2012,06,24,05,44,6.90
2012,06,24,05,45,7.00
2012,06,24,05,46,7.00
2012,06,24,05,47,7.10
2012,06,24,05,48,7.10
2012,06,24,05,49,7.20
2012,06,24,05,50,7.20
2012,06,24,05,51,7.20
2012,06,24,05,52,7.20
2012,06,24,05,53,7.20
2012,06,24,05,54,7.20
2012,06,24,05,55,7.30
2012,06,24,05,56,7.30
2012,06,24,05,57,7.30
2012,06,24,05,58,7.40
2012,06,24,05,59,7.50
2012,06,24,06,00,7.60
2012,06,24,06,01,7.60
2012,06,24,06,02,7.70
2012,06,24,06,03,7.70
2012,06,24,06,04,7.80
2012,06,24,06,05,7.80
2012,06,24,06,06,7.80
2012,06,24,06,07,7.80
2012,06,24,06,08,7.80
2012,06,24,06,09,7.80
2012,06,24,06,10,7.80
2012,06,24,06,11,7.80
2012,06,24,06,12,7.80
2012,06,24,06,13,7.80
2012,06,24,06,14,7.80
2012,06,24,06,15,7.90
2012,06,24,06,16,7.90
2012,06,24,06,17,7.90
2012,06,24,06,18,7.90
2012,06,24,06,19,8.00
2012,06,24,06,20,8.00
2012,06,24,06,21,8.00
2012,06,24,06,22,8.10
2012,06,24,06,23,8.10
2012,06,24,06,24,8.10
2012,06,24,06,25,8.10
2012,06,24,06,26,8.10
2012,06,24,06,27,8.10
2012,06,24,06,28,8.20
2012,06,24,06,29,8.20
2012,06,24,06,30,8.20
2012,06,24,06,31,8.20
2012,06,24,06,32,8.20
2012,06,24,06,33,8.30
2012,06,24,06,34,8.30
2012,06,24,06,35,8.30
2012,06,24,06,36,8.40
2012,06,24,06,37,8.40
2012,06,24,06,38,8.40
2012,06,24,06,39,8.50
2012,06,24,06,40,8.50
2012,06,24,06,41,8.50
2012,06,24,06,42,8.60
2012,06,24,06,43,8.60
2012,06,24,06,44,8.70
2012,06,24,06,45,8.70
2012,06,24,06,46,8.80
2012,06,24,06,47,8.80
2012,06,24,06,48,8.90
2012,06,24,06,49,8.90
2012,06,24,06,50,9.00
2012,06,24,06,51,9.10
2012,06,24,06,52,9.10
2012,06,24,06,53,9.20
2012,06,24,06,54,9.20
2012,06,24,06,55,9.20
2012,06,24,06,56,9.20
2012,06,24,06,57,9.30
2012,06,24,06,58,9.30
2012,06,24,06,59,9.30
2012,06,24,07,00,9.40
2012,06,24,07,01,9.40
2012,06,24,07,02,9.40
2012,06,24,07,03,9.40
2012,06,24,07,04,9.50
2012,06,24,07,05,9.50
2012,06,24,07,06,9.50
2012,06,24,07,07,9.60
2012,06,24,07,08,9.60
2012,06,24,07,09,9.60
2012,06,24,07,10,9.60
2012,06,24,07,11,9.60
2012,06,24,07,12,9.60
2012,06,24,07,13,9.60
2012,06,24,07,14,9.60
2012,06,24,07,15,9.60
2012,06,24,07,16,9.60
2012,06,24,07,17,9.70
2012,06,24,07,18,9.70
2012,06,24,07,19,9.80
2012,06,24,07,20,9.80
2012,06,24,07,21,9.90
2012,06,24,07,22,10.00
2012,06,24,07,23,10.10
2012,06,24,07,24,10.10
2012,06,24,07,25,10.20
2012,06,24,07,26,10.30
2012,06,24,07,27,10.30
2012,06,24,07,28,10.40
2012,06,24,07,29,10.40
2012,06,24,07,30,10.50
2012,06,24,07,31,10.60
2012,06,24,07,32,10.60
2012,06,24,07,33,10.70
2012,06,24,07,34,10.70
2012,06,24,07,35,10.90
2012,06,24,07,36,11.00
2012,06,24,07,37,11.10
2012,06,24,07,38,11.20
2012,06,24,07,39,11.20
2012,06,24,07,40,11.40
2012,06,24,07,41,11.50
2012,06,24,07,42,11.60
2012,06,24,07,43,11.70
2012,06,24,07,44,11.90
2012,06,24,07,45,12.00
2012,06,24,07,46,12.20
2012,06,24,07,47,12.30
2012,06,24,07,48,12.50
2012,06,24,07,49,12.60
2012,06,24,07,50,12.70
2012,06,24,07,51,12.80
2012,06,24,07,52,12.90
2012,06,24,07,53,13.00
2012,06,24,07,54,12.90
2012,06,24,07,55,12.90
2012,06,24,07,56,12.90
2012,06,24,07,57,12.90
2012,06,24,07,58,12.90
2012,06,24,07,59,12.90
2012,06,24,08,00,13.00
2012,06,24,08,01,13.00
2012,06,24,08,02,13.10
2012,06,24,08,03,13.10
2012,06,24,08,04,13.10
2012,06,24,08,05,13.10
2012,06,24,08,06,13.10
2012,06,24,08,07,13.10
2012,06,24,08,08,13.10
2012,06,24,08,09,13.20
2012,06,24,08,10,13.20
2012,06,24,08,11,13.20
2012,06,24,08,12,13.20
2012,06,24,08,13,13.20
2012,06,24,08,14,13.20
2012,06,24,08,15,13.30
2012,06,24,08,16,13.30
2012,06,24,08,17,13.30
2012,06,24,08,18,13.40
2012,06,24,08,19,13.40
2012,06,24,08,20,13.40
2012,06,24,08,21,13.40
2012,06,24,08,22,13.50
2012,06,24,08,23,13.50
2012,06,24,08,24,13.60
2012,06,24,08,25,13.60
2012,06,24,08,26,13.60
2012,06,24,08,27,13.60
2012,06,24,08,28,13.60
2012,06,24,08,29,13.60
2012,06,24,08,30,13.50
2012,06,24,08,31,13.50
2012,06,24,08,32,13.40
2012,06,24,08,33,13.40
2012,06,24,08,34,13.40
2012,06,24,08,35,13.40
2012,06,24,08,36,13.40
2012,06,24,08,37,13.40
2012,06,24,08,38,13.50
2012,06,24,08,39,13.50
2012,06,24,08,40,13.50
2012,06,24,08,41,13.50
2012,06,24,08,42,13.50
2012,06,24,08,43,13.50
2012,06,24,08,44,13.50
2012,06,24,08,45,13.50
2012,06,24,08,46,13.50
2012,06,24,08,47,13.60
2012,06,24,08,48,13.60
2012,06,24,08,49,13.70
2012,06,24,08,50,13.70
2012,06,24,08,51,13.70
2012,06,24,08,52,13.70
2012,06,24,08,53,13.60
2012,06,24,08,54,13.60
2012,06,24,08,55,13.60
2012,06,24,08,56,13.60
2012,06,24,08,57,13.70
2012,06,24,08,58,13.70
2012,06,24,08,59,13.70
2012,06,24,09,00,13.70
2012,06,24,09,01,13.70
2012,06,24,09,02,13.70
2012,06,24,09,03,13.70
2012,06,24,09,04,13.70
2012,06,24,09,05,13.60
2012,06,24,09,06,13.60
2012,06,24,09,07,13.50
2012,06,24,09,08,13.40
2012,06,24,09,09,13.40
2012,06,24,09,10,13.40
2012,06,24,09,11,13.40
2012,06,24,09,12,13.40
2012,06,24,09,13,13.40
2012,06,24,09,14,13.40
2012,06,24,09,15,13.40
2012,06,24,09,16,13.50
2012,06,24,09,17,13.50
2012,06,24,09,18,13.50
2012,06,24,09,19,13.60
2012,06,24,09,20,13.60
2012,06,24,09,21,13.60
2012,06,24,09,22,13.60
2012,06,24,09,23,13.70
2012,06,24,09,24,13.70
2012,06,24,09,25,13.70
2012,06,24,09,26,13.70
2012,06,24,09,27,13.70
2012,06,24,09,28,13.70
2012,06,24,09,29,13.60
2012,06,24,09,30,13.60
2012,06,24,09,31,13.60
2012,06,24,09,32,13.70
2012,06,24,09,33,13.70
2012,06,24,09,34,13.90
2012,06,24,09,35,13.90
2012,06,24,09,36,14.00
2012,06,24,09,37,14.10
2012,06,24,09,38,14.20
2012,06,24,09,39,14.20
2012,06,24,09,40,14.30
2012,06,24,09,41,14.30
2012,06,24,09,42,14.40
2012,06,24,09,43,14.40
2012,06,24,09,44,14.40
2012,06,24,09,45,14.30
2012,06,24,09,46,14.20
2012,06,24,09,47,14.10
2012,06,24,09,48,14.10
2012,06,24,09,49,14.10
2012,06,24,09,50,14.10
2012,06,24,09,51,14.10
2012,06,24,09,52,14.10
2012,06,24,09,53,14.10
2012,06,24,09,54,14.10
2012,06,24,09,55,14.10
2012,06,24,09,56,14.10
2012,06,24,09,57,14.10
2012,06,24,09,58,14.20
2012,06,24,09,59,14.30
2012,06,24,10,00,14.40
2012,06,24,10,01,14.40
2012,06,24,10,02,14.50
2012,06,24,10,03,14.60
2012,06,24,10,04,14.60
2012,06,24,10,05,14.70
2012,06,24,10,06,14.70
2012,06,24,10,07,14.60
2012,06,24,10,08,14.70
2012,06,24,10,09,14.70
2012,06,24,10,10,14.80
2012,06,24,10,11,14.80
2012,06,24,10,12,14.80
2012,06,24,10,13,14.80
2012,06,24,10,14,14.70
2012,06,24,10,15,14.70
2012,06,24,10,16,14.60
2012,06,24,10,17,14.50
2012,06,24,10,18,14.40
2012,06,24,10,19,14.30
2012,06,24,10,20,14.30
2012,06,24,10,21,14.40
2012,06,24,10,22,14.40
2012,06,24,10,23,14.40
2012,06,24,10,24,14.40
2012,06,24,10,25,14.40
2012,06,24,10,26,14.40
2012,06,24,10,27,14.40
2012,06,24,10,28,14.40
2012,06,24,10,29,14.40
2012,06,24,10,30,14.30
2012,06,24,10,31,14.30
2012,06,24,10,32,14.30
2012,06,24,10,33,14.20
2012,06,24,10,34,14.20
2012,06,24,10,35,14.10
2012,06,24,10,36,14.10
2012,06,24,10,37,14.10
2012,06,24,10,38,14.10
2012,06,24,10,39,14.20
2012,06,24,10,40,14.20
2012,06,24,10,41,14.30
2012,06,24,10,42,14.30
2012,06,24,10,43,14.30
2012,06,24,10,44,14.30
2012,06,24,10,45,14.30
2012,06,24,10,46,14.20
2012,06,24,10,47,14.20
2012,06,24,10,48,14.20
2012,06,24,10,49,14.20
2012,06,24,10,50,14.20
2012,06,24,10,51,14.20
2012,06,24,10,52,14.20
2012,06,24,10,53,14.30
2012,06,24,10,54,14.30
2012,06,24,10,55,14.30
2012,06,24,10,56,14.40
2012,06,24,10,57,14.40
2012,06,24,10,58,14.50
2012,06,24,10,59,14.60
2012,06,24,11,00,14.70
2012,06,24,11,01,14.80
2012,06,24,11,02,14.80
2012,06,24,11,03,14.90
2012,06,24,11,04,15.00
2012,06,24,11,05,15.00
2012,06,24,11,06,15.10
2012,06,24,11,07,15.10
2012,06,24,11,08,15.10
2012,06,24,11,09,15.00
2012,06,24,11,10,15.10
2012,06,24,11,11,15.00
2012,06,24,11,12,15.00
2012,06,24,11,13,15.00
2012,06,24,11,14,14.90
2012,06,24,11,15,14.90
2012,06,24,11,16,14.80
2012,06,24,11,17,14.80
2012,06,24,11,18,14.80
2012,06,24,11,19,14.80
2012,06,24,11,20,14.80
2012,06,24,11,21,14.70
2012,06,24,11,22,14.70
2012,06,24,11,23,14.70
2012,06,24,11,24,14.70
2012,06,24,11,25,14.70
2012,06,24,11,26,14.60
2012,06,24,11,27,14.60
2012,06,24,11,28,14.60
2012,06,24,11,29,14.60
2012,06,24,11,30,14.60
2012,06,24,11,31,14.50
2012,06,24,11,32,14.40
2012,06,24,11,33,14.40
2012,06,24,11,34,14.30
2012,06,24,11,35,14.30
2012,06,24,11,36,14.30
2012,06,24,11,37,14.30
2012,06,24,11,38,14.30
2012,06,24,11,39,14.30
2012,06,24,11,40,14.40
2012,06,24,11,41,14.40
2012,06,24,11,42,14.40
2012,06,24,11,43,14.40
2012,06,24,11,44,14.50
2012,06,24,11,45,14.60
2012,06,24,11,46,14.70
2012,06,24,11,47,14.60
2012,06,24,11,48,14.60
2012,06,24,11,49,14.60
2012,06,24,11,50,14.60
2012,06,24,11,51,14.60
2012,06,24,11,52,14.60
2012,06,24,11,53,14.60
2012,06,24,11,54,14.60
2012,06,24,11,55,14.60
2012,06,24,11,56,14.70
2012,06,24,11,57,14.80
2012,06,24,11,58,14.80
2012,06,24,11,59,14.80
2012,06,24,12,00,14.80
2012,06,24,12,01,14.80
2012,06,24,12,02,14.80
2012,06,24,12,03,14.80
2012,06,24,12,04,14.80
2012,06,24,12,05,14.70
2012,06,24,12,06,14.70
2012,06,24,12,07,14.70
2012,06,24,12,08,14.80
2012,06,24,12,09,14.80
2012,06,24,12,10,14.80
2012,06,24,12,11,14.90
2012,06,24,12,12,15.00
2012,06,24,12,13,15.00
2012,06,24,12,14,15.10
2012,06,24,12,15,15.20
2012,06,24,12,16,15.30
2012,06,24,12,17,15.40
2012,06,24,12,18,15.30
2012,06,24,12,19,15.20
2012,06,24,12,20,15.10
2012,06,24,12,21,15.00
2012,06,24,12,22,14.90
2012,06,24,12,23,14.90
2012,06,24,12,24,15.00
2012,06,24,12,25,14.90
2012,06,24,12,26,15.00
2012,06,24,12,27,15.10
2012,06,24,12,28,15.20
2012,06,24,12,29,15.20
2012,06,24,12,30,15.30
2012,06,24,12,31,15.30
2012,06,24,12,32,15.30
2012,06,24,12,33,15.40
2012,06,24,12,34,15.50
2012,06,24,12,35,15.50
2012,06,24,12,36,15.50
2012,06,24,12,37,15.60
2012,06,24,12,38,15.60
2012,06,24,12,39,15.70
2012,06,24,12,40,15.70
2012,06,24,12,41,15.80
2012,06,24,12,42,15.80
2012,06,24,12,43,15.80
2012,06,24,12,44,15.80
2012,06,24,12,45,15.90
2012,06,24,12,46,16.00
2012,06,24,12,47,16.00
2012,06,24,12,48,16.00
2012,06,24,12,49,16.00
2012,06,24,12,50,15.90
2012,06,24,12,51,15.70
2012,06,24,12,52,15.70
2012,06,24,12,53,15.70
2012,06,24,12,54,15.80
2012,06,24,12,55,15.90
2012,06,24,12,56,15.90
2012,06,24,12,57,16.00
2012,06,24,12,58,16.00
2012,06,24,12,59,16.00
2012,06,24,13,00,15.90
2012,06,24,13,01,15.80
2012,06,24,13,02,15.80
2012,06,24,13,03,15.80
2012,06,24,13,04,15.80
2012,06,24,13,05,15.90
2012,06,24,13,06,15.80
2012,06,24,13,07,15.80
2012,06,24,13,08,15.80
2012,06,24,13,09,15.70
2012,06,24,13,10,15.60
2012,06,24,13,11,15.50
2012,06,24,13,12,15.50
2012,06,24,13,13,15.50
2012,06,24,13,14,15.50
2012,06,24,13,15,15.50
2012,06,24,13,16,15.60
2012,06,24,13,17,15.70
2012,06,24,13,18,15.80
2012,06,24,13,19,16.00
2012,06,24,13,20,16.00
2012,06,24,13,21,16.00
2012,06,24,13,22,16.00
2012,06,24,13,23,16.00
2012,06,24,13,24,15.80
2012,06,24,13,25,15.80
2012,06,24,13,26,15.80
2012,06,24,13,27,15.90
2012,06,24,13,28,15.90
2012,06,24,13,29,16.00
2012,06,24,13,30,16.00
2012,06,24,13,31,15.90
2012,06,24,13,32,15.90
2012,06,24,13,33,15.90
2012,06,24,13,34,15.90
2012,06,24,13,35,16.00
2012,06,24,13,36,16.10
2012,06,24,13,37,16.10
2012,06,24,13,38,16.00
2012,06,24,13,39,15.80
2012,06,24,13,40,15.70
2012,06,24,13,41,15.50
2012,06,24,13,42,15.40
2012,06,24,13,43,15.30
2012,06,24,13,44,15.30
2012,06,24,13,45,15.30
2012,06,24,13,46,15.40
2012,06,24,13,47,15.50
2012,06,24,13,48,15.60
2012,06,24,13,49,15.60
2012,06,24,13,50,15.60
2012,06,24,13,51,15.60
2012,06,24,13,52,15.70
2012,06,24,13,53,15.80
2012,06,24,13,54,15.70
2012,06,24,13,55,15.70
2012,06,24,13,56,15.60
2012,06,24,13,57,15.60
2012,06,24,13,58,15.60
2012,06,24,13,59,15.60
2012,06,24,14,00,15.70
2012,06,24,14,01,15.90
2012,06,24,14,02,16.00
2012,06,24,14,03,16.10
2012,06,24,14,04,16.00
2012,06,24,14,05,15.90
2012,06,24,14,06,16.00
2012,06,24,14,07,16.10
2012,06,24,14,08,16.20
2012,06,24,14,09,16.10
2012,06,24,14,10,16.00
2012,06,24,14,11,16.00
2012,06,24,14,12,15.90
2012,06,24,14,13,16.00
2012,06,24,14,14,16.10
2012,06,24,14,15,16.10
2012,06,24,14,16,16.30
2012,06,24,14,17,16.30
2012,06,24,14,18,16.30
2012,06,24,14,19,16.30
2012,06,24,14,20,16.30
2012,06,24,14,21,16.30
2012,06,24,14,22,16.30
2012,06,24,14,23,16.30
2012,06,24,14,24,16.40
2012,06,24,14,25,16.50
2012,06,24,14,26,16.60
2012,06,24,14,27,16.60
2012,06,24,14,28,16.60
2012,06,24,14,29,16.50
2012,06,24,14,30,16.30
2012,06,24,14,31,16.20
2012,06,24,14,32,16.20
2012,06,24,14,33,16.20
2012,06,24,14,34,16.20
2012,06,24,14,35,16.30
2012,06,24,14,36,16.40
2012,06,24,14,37,16.40
2012,06,24,14,38,16.40
2012,06,24,14,39,16.40
2012,06,24,14,40,16.40
2012,06,24,14,41,16.40
2012,06,24,14,42,16.40
2012,06,24,14,43,16.50
2012,06,24,14,44,16.60
2012,06,24,14,45,16.60
2012,06,24,14,46,16.60
2012,06,24,14,47,16.70
2012,06,24,14,48,16.80
2012,06,24,14,49,16.90
2012,06,24,14,50,17.00
2012,06,24,14,51,17.00
2012,06,24,14,52,17.20
2012,06,24,14,53,17.30
2012,06,24,14,54,17.40
2012,06,24,14,55,17.40
2012,06,24,14,56,17.50
2012,06,24,14,57,17.60
2012,06,24,14,58,17.50
2012,06,24,14,59,17.40
2012,06,24,15,00,17.30
2012,06,24,15,01,17.20
2012,06,24,15,02,17.20
2012,06,24,15,03,17.10
2012,06,24,15,04,17.10
2012,06,24,15,05,17.10
2012,06,24,15,06,17.10
2012,06,24,15,07,17.00
2012,06,24,15,08,17.10
2012,06,24,15,09,17.10
2012,06,24,15,10,17.10
2012,06,24,15,11,17.00
2012,06,24,15,12,17.00
2012,06,24,15,13,17.00
2012,06,24,15,14,17.00
2012,06,24,15,15,17.00
2012,06,24,15,16,17.00
2012,06,24,15,17,17.00
2012,06,24,15,18,17.10
2012,06,24,15,19,17.10
2012,06,24,15,20,17.20
2012,06,24,15,21,17.20
2012,06,24,15,22,17.20
2012,06,24,15,23,17.20
2012,06,24,15,24,17.30
2012,06,24,15,25,17.40
2012,06,24,15,26,17.40
2012,06,24,15,27,17.50
2012,06,24,15,28,17.60
2012,06,24,15,29,17.60
2012,06,24,15,30,17.60
2012,06,24,15,31,17.50
2012,06,24,15,32,17.40
2012,06,24,15,33,17.40
2012,06,24,15,34,17.40
2012,06,24,15,35,17.30
2012,06,24,15,36,17.30
2012,06,24,15,37,17.30
2012,06,24,15,38,17.40
2012,06,24,15,39,17.40
2012,06,24,15,40,17.50
2012,06,24,15,41,17.50
2012,06,24,15,42,17.40
2012,06,24,15,43,17.40
2012,06,24,15,44,17.30
2012,06,24,15,45,17.30
2012,06,24,15,46,17.20
2012,06,24,15,47,17.20
2012,06,24,15,48,17.20
2012,06,24,15,49,17.20
2012,06,24,15,50,17.10
2012,06,24,15,51,17.20
2012,06,24,15,52,17.20
2012,06,24,15,53,17.20
2012,06,24,15,54,17.20
2012,06,24,15,55,17.20
2012,06,24,15,56,17.10
2012,06,24,15,57,17.10
2012,06,24,15,58,17.00
2012,06,24,15,59,17.00
2012,06,24,16,00,17.00
2012,06,24,16,01,17.00
2012,06,24,16,02,17.10
2012,06,24,16,03,17.10
2012,06,24,16,04,17.20
2012,06,24,16,05,17.20
2012,06,24,16,06,17.30
2012,06,24,16,07,17.30
2012,06,24,16,08,17.30
2012,06,24,16,09,17.30
2012,06,24,16,10,17.30
2012,06,24,16,11,17.30
2012,06,24,16,12,17.40
2012,06,24,16,13,17.40
2012,06,24,16,14,17.40
2012,06,24,16,15,17.40
2012,06,24,16,16,17.40
2012,06,24,16,17,17.50
2012,06,24,16,18,17.50
2012,06,24,16,19,17.60
2012,06,24,16,20,17.50
2012,06,24,16,21,17.50
2012,06,24,16,22,17.50
2012,06,24,16,23,17.50
2012,06,24,16,24,17.60
2012,06,24,16,25,17.60
2012,06,24,16,26,17.60
2012,06,24,16,27,17.60
2012,06,24,16,28,17.60
2012,06,24,16,29,17.60
2012,06,24,16,30,17.60
2012,06,24,16,31,17.60
2012,06,24,16,32,17.60
2012,06,24,16,33,17.60
2012,06,24,16,34,17.60
2012,06,24,16,35,17.60
2012,06,24,16,36,17.70
2012,06,24,16,37,17.70
2012,06,24,16,38,17.70
2012,06,24,16,39,17.70
2012,06,24,16,40,17.70
2012,06,24,16,41,17.70
2012,06,24,16,42,17.70
2012,06,24,16,43,17.70
2012,06,24,16,44,17.70
2012,06,24,16,45,17.70
2012,06,24,16,46,17.70
2012,06,24,16,47,17.70
2012,06,24,16,48,17.60
2012,06,24,16,49,17.50
2012,06,24,16,50,17.50
2012,06,24,16,51,17.50
2012,06,24,16,52,17.50
2012,06,24,16,53,17.60
2012,06,24,16,54,17.60
2012,06,24,16,55,17.60
2012,06,24,16,56,17.60
2012,06,24,16,57,17.60
2012,06,24,16,58,17.50
2012,06,24,16,59,17.50
2012,06,24,17,00,17.50
2012,06,24,17,01,17.50
2012,06,24,17,02,17.50
2012,06,24,17,03,17.60
2012,06,24,17,04,17.60
2012,06,24,17,05,17.50
2012,06,24,17,06,17.50
2012,06,24,17,07,17.50
2012,06,24,17,08,17.50
2012,06,24,17,09,17.60
2012,06,24,17,10,17.60
2012,06,24,17,11,17.60
2012,06,24,17,12,17.60
2012,06,24,17,13,17.60
2012,06,24,17,14,17.70
2012,06,24,17,15,17.70
2012,06,24,17,16,17.70
2012,06,24,17,17,17.70
2012,06,24,17,18,17.70
2012,06,24,17,19,17.70
2012,06,24,17,20,17.70
2012,06,24,17,21,17.70
2012,06,24,17,22,17.70
2012,06,24,17,23,17.70
2012,06,24,17,24,17.70
2012,06,24,17,25,17.70
2012,06,24,17,26,17.70
2012,06,24,17,27,17.70
2012,06,24,17,28,17.70
2012,06,24,17,29,17.60
2012,06,24,17,30,17.60
2012,06,24,17,31,17.50
2012,06,24,17,32,17.40
2012,06,24,17,33,17.40
2012,06,24,17,34,17.40
2012,06,24,17,35,17.40
2012,06,24,17,36,17.20
2012,06,24,17,37,17.10